Durango International Airport
MMDO : now visible

Airfield :











YOU CAN JOIN US ON...

 
LOGIN :

Register | Disclaimer

   EN    FR    IT 

 









Legend :    VFR   Marginal VFR   IFR   Intensive IFR   Very Intensive IFR
Visi :
Ceiling :
>= 8 km
>= 3000ft
5 to 8 km
1000 to 3000 ft
1500m to 5 km
500 to 1000 ft
800 to 1500m
200 to 500 ft
< 800m
< 200 ft
Symbols :   Thunderstorms  Fog  Heavy snow  Heavy precipitations  Wind > 20 kt






- Airport Elevation : 6104 ft
- IATA code : DGO


MMDO - Durango International

CURRENT METAR :
  • 121548Z 00000KT 10SM FEW200 24/07 A3033 RMK 8/001 MSGTX MMMY

EXPIRED METARs :
  • 121341Z 00000KT 9SM SCT200 17/08 A3035 RMK 8/001

TAF TAF MMDO
Valid from the 12 at 06:00 until the 13 at 06:00 UTC


120458Z 1206/1306 06005KT P6SM SKC
FM121800 06010KT P6SM SCT020
TEMPO 1221/1301 BKN020
FM130200 06005KT P6SM SCT020 SCT100
MMFR FIR / North America



MET'MAP, your aeronautical weather chart ! - Copyright ORBIFLY December 2007 - Disclaimer

ORBIFLY MET'MAP TEAM :

Programming & Development : Alexandra Zaïnal
Concept & original design : Baudouin d'Aumeries
Assistance for programming : Marc-Olivier Méhu
Technical & hardware support : Manuel Goepfert

Contact : metmap@orbifly.com




SOURCES & CREDITS :

   NOAA       Earth
Advisory